Voltar ao catálogo

STARLINK-36564

AtivoComunicaçõesSSO
NORAD 67549·PAYLOAD·🇺🇸 United States

Lançado Jan 22, 2026 de Vandenberg Space Force Base

Loading…

Próximas Passagens (próximas 24 horas)

TLE

AtualizadoSource: CelesTrak SupGP

Época: Sep 15, 2026, 03:25 UTC

1 67549C 26014T   26258.14284722  .00061005  00000+0  18931-2 0  2580
2 67549  97.2844 143.5372 0001908  97.5136 283.8217 15.33417666    15

Acompanhe STARLINK-36564 em tempo real com AllMySat

Download on the App Store